Wind_Speed
13 16 10 9 7 11 13 12 9 13 16 18 16 8 8 9 11 11 12 14 14 16 17 21 26 24 30 30 22 10 2 3 6 8 10 12 12 14 15 14 13 15 16 17
4 9 10 10 10 12 14 14 15 17 16 5 9 7 9 10 11 13 11 17 17 18 20 23 24 27 31 28 10 1 4 6 5 8 10 12 14 15 14 14 15 16 18 18
5 1 5 10 5 9 4 6 7 11 12 11 13 11 12 11 15 12 14 16 18 18 19 22 25 30 33 10 3 8 7 4 8 12 15 16 14 12 12 12 14 14 15 16
2 3 5 3 1 2 4 3 8 8 11 12 11 13 15 11 9 10 11 17 17 18 23 23 24 32 31 13 7 9 9 10 14 15 17 14 13 13 14 14 14 14 17 18
3 4 7 4 4 3 1 7 7 5 9 9 9 8 15 5 5 13 17 14 17 21 21 20 19 26 20 18 13 14 17 17 18 17 14 16 17 18 17 16 17 18 20 19
3 3 5 2 4 5 4 5 2 3 9 11 6 9 12 8 13 14 20 13 16 20 20 21 20 23 11 15 21 21 19 20 19 18 17 16 16 16 14 13 17 19 20 19
3 4 7 6 8 6 2 1 3 6 10 7 5 7 15 17 18 15 12 12 17 16 17 19 19 20 20 21 21 20 20 19 19 20 21 19 19 17 14 16 17 18 19 21
3 4 9 10 7 5 3 4 9 11 11 9 8 9 12 12 7 9 7 12 14 14 16 19 20 21 19 21 22 22 21 21 21 21 18 21 21 22 19 14 14 15 16 17
8 5 3 14 4 8 3 6 9 7 8 6 6 8 7 9 9 7 11 14 13 14 15 16 16 19 19 22 23 23 20 20 19 20 20 20 20 20 17 14 11 12 12 12
1 6 12 10 12 10 7 9 9 9 8 5 7 7 7 7 7 7 11 13 12 13 15 16 15 18 18 20 23 23 22 21 21 20 22 19 20 18 17 15 11 11 11 11
6 10 10 13 12 12 10 7 8 8 7 6 8 7 6 6 6 8 10 11 11 12 13 15 14 16 18 19 21 21 21 20 19 20 20 22 20 21 19 20 14 12 11 11
6 6 3 5 5 3 8 10 8 6 5 7 9 8 6 5 5 7 8 9 9 11 13 14 13 16 17 18 19 19 20 19 20 21 21 21 21 22 20 16 14 13 13 13
6 4 10 10 7 8 11 10 7 6 7 9 8 9 7 4 5 6 7 7 8 10 12 12 13 14 16 17 18 19 18 20 20 20 20 20 20 18 16 15 13 10 9 9
11 8 9 13 7 4 9 9 6 6 8 11 12 9 6 6 6 6 8 8 8 9 9 9 13 14 17 18 18 18 20 19 18 20 21 20 20 19 16 12 11 7 7 5
9 7 14 9 7 5 6 4 5 8 9 9 11 10 8 8 6 7 8 8 7 8 7 9 12 13 16 18 19 20 19 19 21 21 20 20 19 18 16 14 10 7 4 3
11 4 2 3 5 6 6 8 8 11 10 10 11 12 11 9 8 8 8 7 8 9 8 8 10 12 16 19 20 19 20 21 20 21 20 20 18 16 15 14 10 7 6 5
4 1 2 3 5 7 9 9 10 12 10 10 13 11 9 8 8 10 10 8 6 7 6 6 12 16 18 19 18 18 20 19 20 20 20 20 18 16 15 15 11 10 8 11
3 3 5 7 9 10 11 11 12 12 7 6 6 7 9 9 10 11 11 10 11 9 8 8 12 15 16 18 18 17 18 18 18 19 20 20 19 19 15 14 14 12 8 9
7 6 5 6 7 7 8 9 7 7 8 7 9 9 11 14 15 15 13 12 13 10 3 8 12 13 13 16 17 16 16 18 18 19 19 20 19 18 16 15 13 11 9 8
3 3 4 6 7 8 9 9 11 11 11 9 10 11 11 12 12 12 11 10 4 4 8 10 13 12 12 14 19 14 15 17 18 18 18 20 19 20 18 16 13 14 12 11
7 4 6 8 9 10 12 13 12 11 11 10 8 10 8 2 7 7 6 3 6 8 11 14 12 12 13 15 17 15 16 16 17 18 18 20 20 20 20 18 16 13 13 14
9 8 8 9 9 11 15 15 12 14 11 9 7 4 3 5 8 8 6 8 9 12 14 14 14 15 18 19 16 16 17 17 18 18 18 19 19 19 21 21 18 15 13 13
10 10 10 10 10 11 10 10 13 12 11 8 6 6 8 9 10 12 10 12 15 17 19 18 20 23 22 21 17 17 17 17 18 18 18 19 20 21 20 21 22 19 16 14
10 9 8 10 12 13 11 12 12 11 8 8 8 10 13 16 17 17 18 22 23 24 25 25 25 27 25 21 18 18 17 17 17 17 18 20 19 20 19 21 23 21 18 17
9 10 10 11 12 11 13 13 13 12 13 15 17 17 19 19 19 24 24 25 25 24 25 25 26 28 25 20 19 19 18 17 17 17 18 18 19 19 21 22 22 24 20 17
10 9 9 9 9 10 11 13 14 16 18 19 21 22 24 23 23 24 24 25 25 25 25 24 23 22 21 20 20 19 18 18 17 17 17 18 18 20 20 22 22 24 23 18
8 10 11 11 12 14 14 16 17 18 20 20 22 23 24 25 24 25 25 24 24 24 24 23 22 22 21 21 20 19 18 18 18 18 17 17 18 19 21 21 22 23 23 22
Wind_Direction
259 274 276 256 243 208 213 239 242 296 295 296 308 321 316 312 315 319 320 324 323 320 323 317 321 316 325 311 302 303 282 350 2 11 3 360 352 350 345 338 324 313 305 298
270 266 263 266 259 241 249 262 273 276 283 358 325 304 299 312 319 321 319 326 326 321 327 324 326 325 314 302 305 329 62 19 13 20 14 6 2 351 339 329 325 321 316 306
276 45 309 272 226 225 192 208 274 287 308 300 303 296 296 316 315 309 316 324 322 321 328 328 329 326 321 329 63 70 58 35 29 26 19 12 359 346 332 319 320 310 305 299
295 300 242 106 91 180 231 275 270 286 301 310 295 292 297 293 285 299 315 322 323 324 330 335 337 334 345 8 65 70 56 33 26 15 13 3 354 343 333 327 316 315 317 314
256 236 307 195 165 166 261 289 272 247 288 304 311 294 290 273 309 318 319 321 321 325 331 333 344 333 349 358 26 35 25 12 3 359 351 352 351 346 337 328 324 324 323 315
151 241 270 185 195 154 130 275 203 198 275 282 316 305 315 315 318 318 323 324 322 325 330 342 347 340 352 13 17 14 360 355 351 348 342 337 335 337 329 322 324 327 319 320
198 240 275 230 162 164 183 260 245 298 285 274 272 281 312 314 305 316 316 326 323 321 338 344 347 351 1 1 4 357 351 342 336 336 339 335 328 326 324 332 326 322 323 325
153 207 258 159 132 204 227 293 282 292 291 284 289 313 331 332 321 312 320 316 331 335 344 344 352 354 351 357 351 347 345 343 342 342 329 330 326 325 325 324 315 315 318 316
206 223 244 191 209 208 234 259 284 271 284 274 304 317 319 318 320 343 337 334 337 342 340 342 352 356 350 351 350 343 343 342 340 340 341 336 324 315 310 310 311 311 312 313
239 242 238 235 247 263 262 254 270 270 270 261 277 300 304 312 330 328 331 328 336 341 339 337 345 349 344 344 348 345 342 340 338 334 332 334 327 315 303 296 300 303 305 305
258 273 269 262 259 264 269 247 269 288 262 261 283 277 295 307 320 327 323 324 335 333 330 328 332 339 345 341 342 344 339 334 332 337 341 335 327 320 306 303 291 288 295 293
236 233 238 266 228 230 244 247 254 263 266 262 248 265 275 281 304 314 318 322 324 324 322 321 330 335 344 344 339 333 333 332 336 334 333 333 326 322 325 312 297 290 289 286
252 256 235 259 264 260 246 252 240 245 256 266 251 249 239 267 287 294 299 300 310 318 321 324 335 335 339 341 339 337 328 335 332 335 330 327 325 323 322 321 305 292 291 292
252 255 267 247 244 260 229 244 243 259 267 253 249 232 241 258 275 278 281 287 302 316 317 330 333 338 342 339 335 333 335 335 336 331 326 323 326 320 317 310 301 299 298 289
268 239 255 277 264 239 235 222 247 265 266 257 233 238 240 262 276 288 292 284 294 311 311 326 337 341 346 347 345 339 337 335 336 330 322 321 325 322 321 308 285 283 278 255
296 303 349 318 325 317 285 265 257 266 265 257 246 238 238 249 266 282 290 285 298 314 310 321 326 336 343 345 343 339 336 330 331 333 327 328 324 323 322 318 283 267 250 220
185 106 352 299 288 299 291 288 286 286 283 280 275 255 239 253 271 277 271 270 266 299 294 319 333 340 340 345 343 337 334 326 328 335 332 323 320 316 317 317 290 267 248 224
21 344 333 323 316 313 310 310 304 291 284 297 313 301 284 276 273 282 268 273 256 265 280 313 338 343 344 348 347 336 332 328 327 330 332 325 324 317 308 308 307 269 249 226
338 336 357 359 1 344 336 330 339 341 332 329 313 298 292 283 281 279 279 281 271 266 279 333 341 341 339 344 346 337 334 328 327 325 328 330 327 325 311 309 305 287 255 223
307 310 323 327 336 338 329 334 326 319 312 313 312 304 302 307 311 301 293 275 61 38 347 335 337 334 332 332 337 332 331 330 326 323 322 329 330 327 317 306 297 292 260 234
287 319 1 0 349 339 333 329 318 307 316 327 318 304 305 56 40 29 14 351 3 346 337 331 330 328 326 325 329 324 327 326 326 322 325 324 321 327 324 315 303 287 270 246
25 24 14 358 343 323 329 334 339 332 326 319 338 11 66 12 359 343 316 302 315 324 322 317 317 318 322 320 317 316 317 316 316 316 318 321 316 316 320 322 311 287 265 247
19 7 2 5 358 357 19 14 11 18 24 37 31 8 353 333 325 323 318 316 309 312 314 307 306 314 314 313 307 310 310 308 307 307 308 312 312 306 312 318 318 298 267 249
3 2 358 349 348 353 350 351 344 339 339 335 339 340 331 326 315 312 305 304 303 303 302 298 300 303 305 299 295 299 301 301 300 302 302 306 310 306 308 316 317 318 282 259
0 356 353 348 345 345 347 349 343 346 338 329 325 322 319 315 307 305 304 303 303 302 299 298 298 302 299 291 286 289 292 292 293 296 297 299 303 305 308 310 312 315 307 265
3 358 356 3 359 354 350 346 338 331 329 321 317 317 314 313 310 307 305 301 300 298 295 295 294 294 293 289 287 286 286 287 289 289 293 295 296 300 305 309 309 315 315 293
5 5 354 351 352 345 337 332 330 324 323 318 310 313 312 309 307 306 305 303 301 299 297 295 295 292 289 287 286 284 283 283 284 286 290 291 292 295 301 304 308 305 313 313
Height
777 775 784 787 787 789 790 781 786 769 779 775 774 780 780 781 779 777 774 770 768 764 757 750 745 739 729 721 717 714 714 715 714 713 711 709 707 702 699 697 696 694 692 690
796 788 788 789 785 783 782 783 784 781 778 782 780 779 776 774 773 773 769 763 760 758 753 748 740 732 725 717 711 711 712 713 714 713 712 709 705 702 699 697 694 690 687 685
775 792 792 788 788 784 782 779 781 783 778 780 777 775 771 772 770 769 767 763 758 754 752 747 739 730 720 710 709 709 712 714 712 709 706 704 703 701 700 697 693 690 687 684
791 793 788 779 781 780 782 783 779 782 778 777 779 778 777 776 773 771 766 761 757 753 751 744 738 730 721 715 711 712 712 711 708 707 705 704 702 699 696 693 690 686 683 678
795 795 776 777 787 784 787 781 778 783 778 776 776 775 771 771 770 767 763 757 756 753 750 745 740 732 725 721 716 713 711 710 708 707 704 701 699 695 692 688 685 681 678 673
807 805 794 778 787 787 786 782 777 786 780 778 779 771 762 765 767 763 759 757 755 751 747 743 740 734 728 722 718 715 714 711 709 706 704 701 698 695 692 688 682 677 673 669
807 804 789 777 785 788 791 777 777 775 775 777 775 767 764 764 762 761 759 757 754 751 746 743 739 734 729 725 721 718 715 712 708 705 700 697 694 692 688 684 680 675 670 665
813 817 798 776 786 786 771 771 772 770 769 769 765 766 764 764 762 758 757 754 751 748 746 743 739 736 731 727 724 719 714 710 705 702 699 695 691 687 684 681 677 673 668 664
784 773 769 771 767 767 769 771 767 765 760 766 764 764 762 762 759 757 755 754 751 749 746 744 741 737 733 729 724 720 715 711 706 701 696 692 688 684 681 678 676 672 668 664
778 761 768 769 767 767 766 765 764 764 759 759 762 758 758 758 755 755 755 752 750 748 746 743 740 738 735 730 724 719 714 709 704 699 693 689 686 682 678 675 673 670 668 664
778 769 769 764 762 761 761 763 765 766 761 757 759 757 756 755 754 754 753 750 749 748 746 744 741 738 733 729 724 719 715 710 704 698 692 687 684 679 675 672 670 668 666 664
760 758 762 759 759 759 758 757 753 756 756 756 757 754 754 753 752 752 751 749 748 747 745 742 739 736 733 729 724 720 715 709 702 696 690 687 682 676 672 669 667 665 664 663
756 757 758 757 757 755 754 754 753 752 751 753 752 751 751 750 749 749 748 747 746 744 743 740 739 735 731 727 723 718 713 706 700 695 690 686 681 676 670 666 665 663 661 660
756 758 756 751 750 748 749 749 748 747 749 750 750 749 749 748 747 746 746 745 744 743 740 739 736 733 729 725 721 716 710 704 700 694 690 685 680 675 670 666 664 662 660 659
750 752 749 746 746 745 744 744 743 744 745 746 746 746 746 745 743 743 743 742 741 740 737 736 733 730 727 723 718 713 708 703 698 693 688 684 679 674 670 665 663 661 660 659
748 748 748 747 746 744 743 741 741 742 742 742 741 740 740 740 740 739 738 738 738 736 734 733 731 728 724 720 716 711 706 701 696 692 686 682 677 673 669 665 662 661 660 659
746 744 744 743 743 740 741 742 743 741 739 738 736 735 735 735 735 735 734 734 733 732 731 730 727 724 721 718 713 710 705 700 695 690 686 681 676 672 668 665 661 659 658 658
748 745 744 744 743 742 741 740 738 736 735 735 735 734 734 733 731 730 730 729 728 727 726 725 723 720 718 715 712 708 704 700 694 690 684 680 674 670 666 662 659 657 656 656
747 745 745 745 745 745 743 741 739 737 735 733 732 731 731 729 727 726 725 725 723 721 722 721 719 717 715 712 710 707 703 699 694 689 683 678 672 667 664 660 657 655 654 654
746 745 745 744 743 743 742 741 739 737 735 732 730 729 728 726 723 721 720 720 720 720 719 718 715 713 711 709 707 704 701 697 692 688 682 676 671 666 662 658 655 653 651 651
743 743 743 744 744 743 741 739 737 735 733 731 730 729 727 725 723 722 721 719 719 718 717 715 713 711 709 706 704 701 698 694 690 686 680 675 670 665 660 655 652 650 648 647
746 746 746 746 744 742 740 738 736 733 731 730 728 727 726 725 724 722 721 720 717 716 714 712 709 707 705 702 700 697 694 691 687 683 678 674 669 664 659 653 649 646 644 643
749 748 747 746 745 743 740 738 736 735 733 731 731 729 728 726 724 722 718 717 715 713 710 707 705 703 700 697 695 692 689 686 683 680 676 672 667 663 657 652 647 643 641 640
752 751 749 748 745 743 740 738 737 735 733 732 730 729 727 724 721 720 717 713 710 706 703 701 698 696 694 691 689 687 684 681 678 675 671 668 664 659 654 649 644 639 636 635
753 751 750 748 746 744 742 740 738 736 734 732 730 728 725 723 721 714 710 706 702 699 695 692 690 687 685 683 681 679 677 674 672 670 666 663 659 655 651 647 642 637 633 631
754 753 752 750 749 747 745 743 741 738 735 731 727 724 721 717 713 708 704 700 696 692 688 685 682 679 677 674 672 670 668 666 664 663 660 657 654 651 647 642 638 634 630 627
756 755 753 752 750 748 747 745 742 738 734 730 725 721 716 711 706 702 698 693 689 684 681 677 674 671 669 666 664 661 660 658 657 655 653 651 648 645 641 638 634 630 626 623